Connexion S'enregistrer

Connexion à votre compte

Identifiant
Mot de passe
Maintenir la connexion active sur ce site

Créer un compte

Pour valider ce formulaire, vous devez remplir tous les champs.
Nom
Identifiant
Mot de passe
Répétez le mot de passe
Adresse e-mail
Répétez l'adresse e-mail

Nous contacter

 Téléphone : +33 (0)4 79 54 41 81

Coordonnées détaillées et accès : cliquez ici

 
LFLB °C
    Ferienhaus Ostsee
[source: ADDS]
METAR
LFLB 190500Z AUTO 17004KT 9999 FEW030 SCT049 BKN084 03/01 Q1029 =
TAF
SR / SS: 06:32 / 17:07 UTC (Lever/Coucher du soleil le 2020-02-19)
JSN Boot template designed by JoomlaShine.com